OV1-4 R/B, 2124

Orbit data source: Space-Track

OV1-4 R/B, 2124 is space debris in LEO originally from a launch on Wed, 30 Mar 1966 UTC launched from the Air Force Western Test Range (AFWTR). Debris objects in space refer to the collection of defunct objects orbiting the Earth. Examples of debris include non-operational satellites, rocket bodies, and fragments generated from explosions, collisions, or faulty payload assembly.

Loading next visibility...
Identifier
2124, 1966-025D
Orbit
LEO
Last TLE update
1 day ago
Origin
Manufacturer
ABL
Mission
Spacecraft
Bus & Motor
ALTAIR, Unknown motor
Mass
~125 kg wet, ~125 kg dry
Launch date (UTC)
1966-03-30 (59 years ago)
Launch vehicle
Unknown
Launch site
Air Force Western Test Range (AFWTR)
Object type
Payload
Rocket body
Debris
Shape & HBR
Cyl, 2.1 m
Radar Cross Section
1.347 m², Medium (>0.1 m² and < 1m²)

Expand to show TLE details & history

TLE from 1 day ago
0 OV1-4 R/B
1 02124U 66025D   25129.06485846  .00000426  00000-0  12693-3 0  9994
2 02124 144.5089 184.4925 0080000 101.2616 259.7064 13.87762016995423
Epoch: 2025-05-09T01:33Z
Definitive object data (Epoch: 2025-05-09T01:33:23.77Z)
Latitude
-0.00006°
Longitude
-65.98282°
Altitude
946.412 km
Speed
7.375 km/s
True Right ascension
12h 17m 58s
True Declination
0° 00' 00"
Sunlit
Object was in full shadow at TLE epoch
Visualization TLE readout
Latitude
-35.00653°
Longitude
16.72799°
Altitude
1,003.683 km
Speed
7.322 km/s
Apparent Right ascension
19h 27m 54s
Apparent Declination
-40° 32' 32"
Sunlit
Object is in full shadow
Visualization observer readout
Local Sidereal Time
09:32:38
Azimuth
101.685° ESE
Elevation
-66.312°
Doppler factor
1
Orbital elements
Apogee altitude
998.008 km
Perigee altitude
880.926 km
Semi-major axis
7,317.604 km
Eccentricity
0.008
Inclination
144.5089°
RAAN
184.4925°
Arg. of periapsis
101.2616°
True anomaly
258.80607°
Mean anomaly
259.7064°
Eccentric anomaly
259.25607°
Mean motion
3.46729 °/min
BSTAR
0.00012693
Orbital period
103.83 mins
Loading maneuver chart data...
Loading SW <> Apogee altitude chart data...
Loading historical data...
Loading historical data...
Loading historical data...
Loading historical data...
Loading historical data...
Loading historical data...
Loading historical data...

OV1-4 R/B Visibility forecast

Observer location: undefined°, undefined°

Span
Click to sort rows by Start time (UTC) header in descending order
Start Az.
Max El. time (UTC)
Max El. Az.
Max El.
End time (UTC)
End Az.
7 mins2025-05-10 01:54:41.645Z162.689° S2025-05-10 01:58:41.645Z210.791° SW18.651°2025-05-10 02:01:41.645Z247.447° WSW
7 mins2025-05-10 19:32:41.645Z113.03° SE2025-05-10 19:35:41.645Z156.793° SSE22.989°2025-05-10 19:39:41.645Z208.445° SW
8 mins2025-05-10 21:10:41.645Z102.837° ESE2025-05-10 21:13:41.645Z152.435° SSE35.743°2025-05-10 21:18:41.645Z239.645° WSW
9 mins2025-05-10 22:48:41.645Z108.078° ESE2025-05-10 22:52:41.645Z191.549° SSW39.894°2025-05-10 22:57:41.645Z260.113° W
9 mins2025-05-11 00:26:41.645Z128.914° SE2025-05-11 00:30:41.645Z190.712° SSW33.978°2025-05-11 00:35:41.645Z264.334° W
|